GFSFLT2_sfc_temp_000.txt.gz
Temp
83 83 77 70 69 69 69 70 71 71 71 71 71 71 71 72 72 73 74 73 73 72 71 71 71 70 69 68 67 68 81 84
81 83 82 81 81 67 68 68 68 69 70 69 67 68 70 70 69 71 71 72 72 71 70 70 70 70 68 66 67 67 79 83
77 80 79 79 81 78 74 70 69 68 70 67 70 77 72 71 64 65 67 69 69 70 69 68 67 67 66 65 65 75 78 82
77 75 76 79 82 80 80 79 79 79 79 76 78 72 70 66 63 63 63 63 62 67 67 67 67 79 76 66 73 71 70 75
74 73 73 77 78 83 81 72 75 77 75 75 72 67 63 68 61 61 61 61 62 60 67 70 71 74 73 71 62 59 62 65
72 72 72 73 79 79 78 78 76 75 74 73 72 70 70 65 63 62 59 61 61 61 62 62 66 72 67 62 66 62 63 62
71 72 72 73 74 75 74 74 74 73 73 73 75 73 69 69 65 64 62 62 61 61 65 66 63 64 64 64 66 65 63 61
71 72 72 73 73 72 72 72 73 73 72 71 71 72 69 69 63 63 63 63 64 64 63 65 64 65 66 69 68 69 65 65
72 72 72 72 72 73 74 73 73 72 71 70 70 71 69 67 68 65 65 64 63 63 62 63 65 66 67 70 69 67 66 65
72 73 72 72 72 74 74 74 73 72 72 71 69 68 69 68 68 66 65 65 62 59 57 58 59 60 61 64 66 70 69 68
71 71 71 71 71 72 71 70 73 73 72 72 69 69 68 69 68 67 66 67 65 63 61 63 62 60 61 66 62 62 69 68
71 71 69 69 71 70 71 71 72 73 72 72 70 70 69 70 69 67 68 67 65 64 63 65 65 62 61 61 63 67 66 66
70 69 69 70 69 69 70 69 70 71 73 70 69 71 69 69 70 68 67 66 64 63 63 62 63 63 61 60 62 62 65 63
70 70 70 70 72 72 72 70 71 73 72 68 68 68 68 69 67 67 66 66 64 63 62 61 62 63 57 57 55 62 63 62
70 71 70 70 70 70 69 68 68 68 69 70 69 67 67 66 66 66 65 65 64 63 63 61 59 62 61 57 52 51 51 63
69 70 70 70 69 68 66 67 66 69 67 69 68 67 66 66 65 65 64 64 63 63 65 62 61 58 62 63 59 57 51 51
68 69 68 69 67 66 65 64 66 67 66 63 64 65 65 65 64 63 63 63 62 61 60 60 61 59 59 60 59 59 57 53
66 66 67 67 65 64 62 62 63 62 63 61 63 63 64 63 63 61 61 60 60 60 60 59 59 59 59 59 58 56 56 55
65 65 64 66 63 62 61 61 60 59 59 60 58 58 59 60 59 58 59 58 58 58 58 57 58 58 58 58 59 58 58 57
65 65 63 65 61 60 59 59 59 60 56 58 57 55 54 56 55 55 56 56 56 56 56 57 57 57 56 58 58 59 59 58

GFSFLT2_sfc_temp_003.txt.gz
Temp
87 87 78 70 70 69 69 70 71 72 72 72 73 72 72 72 68 69 69 72 71 72 71 71 71 70 70 70 68 69 77 79
87 87 87 85 83 69 69 69 69 70 70 69 69 71 71 66 68 67 67 67 67 66 69 70 70 69 68 68 67 68 77 80
83 85 83 83 85 80 72 71 71 70 70 68 69 79 74 75 66 66 66 65 65 64 63 66 67 67 67 67 66 78 80 78
83 79 80 81 86 83 83 81 81 81 81 78 81 77 76 75 69 65 65 64 64 63 61 62 65 74 72 67 75 79 78 79
80 78 78 80 82 83 76 78 79 80 78 79 75 75 74 74 73 73 70 64 67 61 60 59 59 60 62 69 76 75 77 78
78 76 77 78 84 84 82 81 80 80 78 76 75 75 71 73 71 71 69 68 65 62 59 59 60 62 60 63 65 69 72 72
77 77 77 78 78 78 77 77 77 77 78 75 77 76 73 74 72 72 70 70 65 64 62 60 61 63 63 62 65 67 67 68
77 78 77 78 77 75 74 75 75 76 75 74 73 74 72 73 73 71 70 68 67 65 64 64 63 64 63 64 65 66 68 71
77 78 78 77 76 76 77 76 76 75 74 72 72 72 70 70 71 71 70 68 65 63 60 62 64 64 64 65 65 67 69 67
79 80 78 76 76 77 78 77 76 75 74 73 71 70 71 71 71 69 68 69 68 65 63 61 62 62 60 62 66 68 70 70
76 77 76 75 75 78 76 73 76 76 74 73 71 71 70 71 70 69 68 69 67 66 65 64 62 64 63 63 64 66 68 69
76 76 75 74 75 74 75 75 74 74 74 74 71 71 71 71 71 69 68 68 66 65 63 65 64 63 63 63 64 64 65 67
74 74 73 74 73 72 72 70 72 73 74 72 71 73 71 70 71 69 69 67 66 65 64 62 63 65 60 61 64 65 64 68
74 74 74 73 75 74 74 73 73 74 74 71 71 70 70 70 69 68 68 66 65 65 63 61 62 65 59 58 55 61 66 63
74 75 75 73 73 74 72 71 70 70 71 71 70 69 70 69 68 67 66 66 64 64 64 61 59 62 63 59 53 52 57 63
74 75 75 75 73 71 69 68 67 70 71 72 72 71 69 69 68 67 66 65 63 63 65 63 61 58 61 63 62 60 52 50
73 73 73 74 73 68 67 64 67 69 69 67 67 67 68 67 67 65 64 64 64 63 62 61 62 60 59 59 59 60 60 56
72 72 72 73 71 69 64 62 64 64 64 62 62 64 64 65 65 63 62 61 61 61 61 60 59 59 60 59 58 56 55 56
72 71 70 71 70 68 66 64 63 62 61 60 60 58 60 60 60 58 58 59 59 59 58 57 57 56 57 58 60 59 60 59
73 71 69 70 69 67 66 64 62 62 61 58 57 58 58 59 58 57 57 57 56 56 56 56 56 56 56 56 58 60 61 61

GFSFLT2_sfc_temp_006.txt.gz
Temp
83 78 74 70 70 70 70 71 72 73 73 73 72 71 69 69 69 69 69 69 69 71 71 70 70 70 70 69 68 68 66 72
83 84 79 72 71 69 69 70 71 72 71 71 71 69 68 67 68 68 68 68 66 66 66 66 69 69 68 68 68 67 65 70
79 80 79 79 79 73 70 70 70 69 69 70 68 72 71 68 67 67 67 67 67 66 65 65 66 67 68 68 67 66 69 70
77 75 74 76 82 78 74 77 74 73 73 72 72 71 67 68 66 66 66 65 64 64 63 63 64 61 62 66 64 66 68 70
75 74 74 75 75 74 74 73 73 72 73 72 69 69 67 67 68 66 66 63 62 61 60 59 59 59 59 60 62 62 65 67
75 73 73 73 74 74 73 73 72 71 70 71 68 66 65 65 66 64 64 64 63 62 58 57 57 59 59 58 60 61 63 67
75 73 72 73 73 70 70 69 68 69 69 69 68 67 65 65 63 63 63 63 61 60 59 58 57 59 59 59 60 60 62 63
75 73 72 73 72 70 68 68 67 67 67 67 68 66 64 64 63 63 62 62 61 61 60 61 61 60 60 61 61 61 62 64
73 73 73 71 70 68 67 67 68 66 65 66 66 66 63 63 62 62 61 61 60 59 58 58 58 61 60 61 61 62 62 63
74 77 72 70 69 68 69 68 66 66 65 64 64 65 65 63 61 60 59 60 59 57 56 56 56 57 57 57 58 61 62 63
72 72 70 70 69 69 68 67 66 66 65 64 64 64 65 62 61 59 59 59 58 57 55 55 54 55 57 57 56 57 61 64
72 71 70 69 68 66 66 65 66 65 65 64 64 63 64 62 61 60 60 58 57 56 55 55 55 54 60 57 54 56 58 59
70 70 68 67 65 63 62 61 63 63 65 66 64 64 64 61 60 60 60 58 57 57 55 54 52 54 52 51 52 56 55 59
69 70 69 67 66 65 64 64 64 65 64 63 64 63 63 63 60 59 59 57 56 55 55 52 52 53 49 49 46 51 54 55
70 69 69 67 66 66 64 63 61 61 61 61 62 62 62 62 61 59 58 57 55 54 53 53 49 51 52 48 45 43 48 54
68 69 69 69 66 64 61 61 60 62 60 62 64 62 61 62 61 60 57 56 55 54 57 52 51 48 50 55 50 50 46 45
66 67 67 68 65 63 61 59 60 59 59 60 60 60 62 62 61 59 56 55 54 52 52 52 51 49 49 48 49 50 50 47
66 66 67 67 65 63 59 57 57 57 57 55 57 57 56 57 57 54 53 53 52 50 50 50 49 49 49 50 49 47 47 47
66 66 66 66 63 62 60 58 57 56 56 55 55 54 54 53 54 52 52 51 51 51 49 48 48 48 48 48 50 50 51 50
67 67 66 66 64 63 60 59 57 56 56 55 52 52 52 54 53 52 52 51 50 49 48 48 47 47 47 48 49 50 51 51

GFSFLT2_sfc_temp_009.txt.gz
Temp
68 70 70 70 70 70 70 70 70 71 71 70 69 68 68 69 69 69 69 69 69 69 69 69 69 69 69 68 68 68 66 66
68 68 68 66 66 68 69 69 69 69 70 70 67 67 67 67 68 68 68 68 68 68 67 67 67 67 67 67 67 67 64 64
68 68 69 66 67 68 68 69 69 68 68 69 66 65 65 66 66 67 68 67 67 67 66 66 66 66 66 65 65 63 64 66
66 67 67 69 75 66 66 69 66 66 68 66 66 66 66 65 66 66 66 65 65 64 64 64 63 60 59 64 62 61 61 64
66 66 66 66 67 66 65 66 65 66 66 65 64 63 62 62 61 61 60 63 58 59 58 57 57 57 57 58 60 60 59 62
65 66 66 65 64 64 64 65 64 63 64 64 61 60 60 60 59 59 59 58 57 57 56 56 55 57 57 57 58 59 60 61
64 65 64 66 64 62 62 61 61 62 62 63 61 59 59 59 59 58 58 58 58 57 56 55 55 56 57 57 57 59 59 60
64 64 65 65 62 62 61 60 61 60 59 61 62 60 59 59 58 58 57 57 56 55 55 57 56 58 58 58 59 59 59 60
64 64 64 63 62 61 60 60 61 59 59 61 61 60 59 58 57 55 55 56 56 54 54 54 53 55 56 58 59 61 60 60
66 71 64 63 61 61 60 60 59 58 58 59 60 61 60 57 56 54 56 55 54 53 51 50 50 50 50 53 55 56 58 59
64 64 62 62 61 60 59 59 58 58 57 57 59 60 61 57 55 55 57 54 53 54 52 51 50 50 52 52 51 52 54 60
64 63 64 62 60 59 58 58 59 57 57 57 59 58 60 57 55 55 56 54 52 53 52 51 50 50 55 54 50 50 51 52
64 62 62 60 58 57 56 55 56 56 57 59 58 58 59 57 55 55 54 53 52 53 51 50 49 50 47 47 48 50 51 51
62 63 61 60 59 57 57 56 56 57 57 57 58 57 57 57 56 54 54 53 53 52 50 49 48 49 46 44 41 46 48 51
62 62 62 60 60 58 57 55 55 55 56 55 56 58 57 57 55 54 53 52 51 50 50 49 46 48 48 46 42 40 44 49
62 63 62 61 59 57 56 56 54 55 55 55 55 56 57 57 57 55 53 51 50 49 52 49 47 44 46 52 47 46 43 43
61 62 61 62 59 56 54 54 54 55 55 55 54 54 56 57 55 54 52 50 50 49 47 46 46 45 45 44 45 46 45 44
59 59 61 61 60 58 55 54 56 53 53 52 52 53 53 53 53 50 50 48 49 47 47 47 45 44 45 45 45 44 44 44
58 57 58 59 57 57 56 56 55 55 52 50 50 50 50 50 50 50 49 50 49 49 48 46 45 44 43 45 45 46 47 46
57 59 59 59 56 55 55 54 55 55 53 50 47 47 49 49 49 48 48 48 48 47 47 47 44 43 42 41 44 46 47 47

GFSFLT2_sfc_temp_012.txt.gz
Temp
66 67 69 70 69 69 69 70 70 70 69 69 69 68 68 69 69 69 69 69 69 69 68 68 68 68 67 67 67 67 65 65
65 66 66 65 65 68 68 68 69 69 69 67 67 67 67 67 67 68 68 68 68 68 68 68 67 67 67 66 66 66 63 63
65 65 65 64 64 67 67 69 68 68 68 67 65 63 63 64 66 67 68 67 67 66 66 65 65 65 65 66 65 62 62 63
63 63 64 64 71 66 64 67 65 65 65 64 64 62 61 63 64 66 66 65 65 64 64 63 61 58 58 62 60 61 61 61
63 65 64 64 65 63 62 62 62 63 64 62 62 61 61 60 59 60 58 61 57 58 57 55 56 55 55 56 58 58 59 60
62 63 64 62 61 62 62 62 61 61 61 62 59 59 58 58 58 58 57 56 56 55 55 55 54 54 55 55 56 56 59 62
61 62 63 62 61 60 59 59 59 60 60 61 60 58 58 58 57 56 56 56 56 55 58 58 57 55 56 56 56 56 57 58
61 62 63 62 60 60 59 58 58 58 58 59 60 58 57 57 56 56 55 55 54 54 53 53 53 54 55 57 57 57 59 59
61 61 61 61 60 60 59 59 59 57 57 58 59 58 57 56 55 54 54 54 54 52 52 51 50 52 52 53 55 56 56 57
62 68 61 60 60 60 60 58 57 57 57 56 58 59 58 55 54 53 53 53 52 50 50 49 49 48 47 48 51 52 52 53
62 61 60 59 58 58 57 58 56 56 56 56 58 58 58 55 53 53 54 52 50 51 50 49 48 49 50 50 49 49 50 55
60 59 59 59 57 55 55 54 55 54 55 55 58 57 58 54 53 53 53 51 50 49 50 49 49 48 53 51 48 49 48 49
60 60 59 56 55 54 52 53 54 54 54 57 56 57 57 54 53 53 52 51 50 50 49 49 47 47 46 45 46 47 48 51
59 60 59 58 56 55 55 54 54 55 55 54 55 55 55 55 53 52 51 50 50 50 49 47 47 47 45 42 40 45 46 48
61 60 59 58 57 55 54 52 52 52 53 52 54 55 56 54 54 52 50 50 49 49 49 47 45 45 46 44 39 37 44 47
58 60 59 59 57 54 53 56 56 57 56 53 54 55 55 54 53 52 50 49 48 47 49 45 44 43 44 48 45 42 38 40
59 60 59 60 57 54 52 52 55 57 51 52 51 52 53 54 52 51 49 48 47 47 46 44 45 43 43 41 42 41 41 39
57 57 58 58 57 55 52 51 54 52 51 49 49 48 47 49 51 49 49 48 48 46 46 45 44 45 44 42 41 39 40 38
56 56 58 59 55 54 54 52 52 51 52 51 50 49 48 46 47 46 46 45 45 45 45 45 45 44 44 43 44 43 43 42
56 57 57 58 55 54 53 51 50 50 50 50 47 48 46 47 45 44 45 45 45 45 43 43 43 43 43 42 42 43 44 43